15501 E. Alicante Road La Mirada, CA 90638
Phone: 562.943.7123

La Mirada Golf Course

LOWEST AVAILABLE RATE
$13.00
View ScorecardTotal Holes: 18

La Mirada Golf Course

La Mirada Golf Course, located just south of Los Angeles in Mirada, CA is a 6,083 yard Par 70 course that provides a fun and challenging experience to golfers of all skill levels. The golf course features rolling fairways with several blind target shots into well bunkered greens. The signature 10th hole is a 364 yard Par 4 with a pond guarding the left side of the fairway and approach to the green. A night lit two tier grass tee driving range with 2 large putting greens makes the golf course a great practice facility.

La Mirada Golf Course has been voted LA County course of the year 4 times and features a banquet room with the capacity for 400. The golf course was designed in 1962 by William Bell and is conveniently located just off the 5 freeway and only minutes from Fullerton Municipal Airport.
 
Book your tee time online today through Golfzing for the cheapest rates. For information regarding events, lessons or tournaments, follow the links provided or contact the golf course for more details.

Amenities
Pro ShopInstructionRental Clubs
Pull CartBar & GrillSnack Bar
Driving RangePutting Green(s)Practice Bunker(s)
ClubhouseCart Rental 
Format: 2015-07-28
You don't have Javascript enabled. Hover for more information! But don't worry: you can still use this web site! You have two options:
  • enable Javascript in your browser and then refresh this page, for a much enhanced experience.
  • click the Update button every time you want to update the selection.

Location:La Mirada Golf Course - La Mirada, CA
Date: Friday July 31st, 2015
Details:
Posted by the golf community

Location:La Mirada Golf Course - La Mirada, CA
Date: Friday July 31st, 2015
Details:
Posted by the golf community
Format: 2015-07-28

Weekday Golf, Cart, Food & Bev

Location:La Mirada Golf Course - La Mirada, CA
Date: Thursday July 23rd, 2015
Details:

Rewards for Golfzing Members

Location:La Mirada Golf Course - La Mirada, CA
Date: Tuesday July 28th, 2015
Details:
 
Feel Like: 71 °F Last Updated: Tuesday July 28, 2015 9:21 PM
 Temperature: 71 °F
 Sunrise: 5:59 am 
 Sunset: 7:55 pm 
 Dewpoint: 66 °F
 Relative Humidity: 84.1
 Wind: 178 at 2 mph
 Barometer: 29.88 in and rising

Today Wed, 7/29 Thu, 7/30 Fri, 7/31 Sat, 8/1 Sun, 8/2 Mon, 8/3
High: 67
Low: 67
High: 92
Low: 70
High: 92
Low: 70
High: 89
Low: 70
High: 88
Low: 69
High: 88
Low: 69
High: 88
Low: 69
Clear except for patchy low clouds and fog after midnight. Fog locally dense with visibility one quarter mile or less. Lows in the lower to mid 60s.
Areas of low clouds and fog in the morning then partly cloudy. Fog locally dense with visibility one quarter mile or less. Highs in the lower to mid 90s.
Mostly cloudy with a 20 percent chance of showers and thunderstorms. Highs in the lower to mid 90s.
Partly cloudy. Highs in the upper 80s and 90s. Lows around 70.
Partly cloudy. Highs in the upper 80s and 90s. Lows around 70.
Partly cloudy. Highs in the upper 80s to mid 90s. Lows around 70.
Partly cloudy. Highs in the upper 80s to mid 90s. Lows around 70.
Powered by WeatherBug

Fill in the form below.

15501 E. Alicante Road La Mirada, CA 90638, US
Enter the address, postcode and/or city from where you want to start your journey.
mbermudez
Brian Bode
Holden Kim
Lakewood Countr...
Kyle Mitchell
Warren Leary
Glen Chow
George Chan
Neil Sauer
Aaron Thiebaux
Ed Ornelas
Chris Belcher
Joe Garcia
Ed Halili
Natalie Sauer
Lisa DellArco
Book a Tee Time
Options
Ride
Walk
ZINGTIMES!
Search

Time
Players
Details
Price
Info
 

5:00 AM
18 holes Cart Included
$29.00$42.00
5,800 ZINGPOINTS!

5:07 AM
18 holes Cart Included
$29.00$42.00
5,800 ZINGPOINTS!

5:15 AM
18 holes Cart Included
$29.00$42.00
5,800 ZINGPOINTS!

5:22 AM
18 holes Cart Included
$29.00$42.00
5,800 ZINGPOINTS!

5:37 AM
2
18 holes Cart Included
$29.97$42.00
5,994 ZINGPOINTS!

5:52 AM
18 holes Cart Included
$42.00
8,400 ZINGPOINTS!

7:07 AM
2
18 holes Cart Included
$29.97$42.00
7,493 ZINGPOINTS!

7:15 AM
18 holes Cart Included
$29.97$42.00
7,493 ZINGPOINTS!

7:22 AM
18 holes Cart Included
$29.97$42.00
7,493 ZINGPOINTS!

7:37 AM
18 holes Cart Included
$29.97$42.00
7,493 ZINGPOINTS!

7:45 AM
18 holes Cart Included
$29.97$42.00
7,493 ZINGPOINTS!

7:59 AM
2
18 holes Cart Included
$29.97$42.00
7,493 ZINGPOINTS!

8:00 AM
18 holes Cart Included
$29.97$42.00
7,493 ZINGPOINTS!

8:07 AM
2
18 holes Cart Included
$29.97$42.00
7,493 ZINGPOINTS!

8:15 AM
18 holes Cart Included
$29.97$42.00
7,493 ZINGPOINTS!

8:22 AM
2
18 holes Cart Included
$29.97$42.00
7,493 ZINGPOINTS!

8:30 AM
2
18 holes Cart Included
$29.97$42.00
7,493 ZINGPOINTS!

8:37 AM
2
18 holes Cart Included
$29.97$42.00
7,493 ZINGPOINTS!

8:45 AM
18 holes Cart Included
$42.00
10,500 ZINGPOINTS!

9:45 AM
18 holes Cart Included
$29.97$42.00
7,493 ZINGPOINTS!

10:00 AM
18 holes Cart Included
$29.97$42.00
7,493 ZINGPOINTS!

10:07 AM
18 holes Cart Included
$29.97$42.00
7,493 ZINGPOINTS!

10:15 AM
18 holes Cart Included
$42.00
10,500 ZINGPOINTS!

10:59 AM
2
18 holes Cart Included
$29.97$42.00
7,493 ZINGPOINTS!

11:00 AM
18 holes Cart Included
$29.97$42.00
7,493 ZINGPOINTS!

11:07 AM
18 holes Cart Included
$29.97$42.00
7,493 ZINGPOINTS!

11:15 AM
18 holes Cart Included
$29.97$42.00
7,493 ZINGPOINTS!

11:22 AM
18 holes Cart Included
$29.97$42.00
7,493 ZINGPOINTS!

11:30 AM
18 holes Cart Included
$29.97$42.00
7,493 ZINGPOINTS!

11:37 AM
18 holes Cart Included
$29.97$42.00
7,493 ZINGPOINTS!

11:45 AM
18 holes Cart Included
$42.00
10,500 ZINGPOINTS!

12:22 PM
2
18 holes Cart Included
$29.97$42.00
5,994 ZINGPOINTS!

12:59 PM
2
18 holes Cart Included
$42.00
8,400 ZINGPOINTS!

1:07 PM
2
18 holes Cart Included
$29.97$42.00
5,994 ZINGPOINTS!

1:15 PM
18 holes Cart Included
$29.97$42.00
5,994 ZINGPOINTS!

1:22 PM
18 holes Cart Included
$29.97$42.00
5,994 ZINGPOINTS!

1:37 PM
2
18 holes Cart Included
$29.97$42.00
5,994 ZINGPOINTS!

1:59 PM
2
18 holes Cart Included
$29.97$42.00
5,994 ZINGPOINTS!

2:00 PM
18 holes Cart Included
$29.97$42.00
5,994 ZINGPOINTS!

2:07 PM
18 holes Cart Included
$29.97$42.00
5,994 ZINGPOINTS!

2:15 PM
18 holes Cart Included
$29.97$42.00
5,994 ZINGPOINTS!

2:22 PM
18 holes Cart Included
$29.97$42.00
5,994 ZINGPOINTS!

2:30 PM
18 holes Cart Included
$29.00$42.00
5,800 ZINGPOINTS!

2:37 PM
18 holes Cart Included
$29.00$42.00
5,800 ZINGPOINTS!

2:45 PM
18 holes Cart Included
$42.00
8,400 ZINGPOINTS!

2:52 PM
18 holes Cart Included
$31.90$42.00
6,380 ZINGPOINTS!

2:59 PM
2
18 holes Cart Included
$29.00$42.00
5,800 ZINGPOINTS!

3:07 PM
2
18 holes Cart Included
$30.25
6,050 ZINGPOINTS!

3:08 PM
18 holes Cart Included
$30.25
6,050 ZINGPOINTS!

3:15 PM
18 holes Cart Included
$30.25
6,050 ZINGPOINTS!

3:22 PM
18 holes Cart Included
$30.25
6,050 ZINGPOINTS!

3:37 PM
18 holes Cart Included
$30.25
6,050 ZINGPOINTS!

3:52 PM
18 holes Cart Included
$30.25
6,050 ZINGPOINTS!

4:00 PM
18 holes Cart Included
$30.25
6,050 ZINGPOINTS!

4:07 PM
18 holes Cart Included
$30.25
6,050 ZINGPOINTS!

4:15 PM
18 holes Cart Included
$30.25
6,050 ZINGPOINTS!

4:22 PM
18 holes Cart Included
$30.25
6,050 ZINGPOINTS!

4:45 PM
18 holes Cart Included
$18.97$24.25
3,794 ZINGPOINTS!

4:52 PM
18 holes Cart Included
$18.97$24.25
3,794 ZINGPOINTS!

5:07 PM
18 holes Cart Included
$13.00$24.25
1,950 ZINGPOINTS!

5:15 PM
18 holes Cart Included
$13.00$24.25
1,950 ZINGPOINTS!

5:22 PM
18 holes Cart Included
$13.00$24.25
1,950 ZINGPOINTS!

5:30 PM
18 holes Cart Included
$13.00$24.25
1,950 ZINGPOINTS!

5:37 PM
18 holes Cart Included
$13.00$24.25
1,950 ZINGPOINTS!

5:45 PM
18 holes Cart Included
$13.00$24.25
1,950 ZINGPOINTS!

5:52 PM
18 holes Cart Included
$24.25
3,638 ZINGPOINTS!

6:00 PM
18 holes Cart Included
$13.00$24.25
1,950 ZINGPOINTS!

6:07 PM
18 holes Cart Included
$13.00$24.25
1,950 ZINGPOINTS!

6:15 PM
18 holes Cart Included
$13.00$24.25
1,950 ZINGPOINTS!

6:22 PM
18 holes Cart Included
$13.00$24.25
1,950 ZINGPOINTS!

6:30 PM
18 holes Cart Included
$13.00$24.25
1,950 ZINGPOINTS!

6:37 PM
18 holes Cart Included
$13.00$24.25
1,950 ZINGPOINTS!

6:45 PM
18 holes Cart Included
$24.25
3,638 ZINGPOINTS!

Tee Times and Golf Course Discounts